• In Hungary
  • List of Countries
  • For 7 days
  • Water Temperature
  • Satellite Maps
  • Weather Map
  • News
  • Weather Widgets
  • user-avatar
    Login

    Hourly Weather Spiny

    Today, 15 July, Sunday

    Time Temperature Precipitation Wind Pressure Humidity
    00:00 +16°C° 0.3 mm 2 mps 737 mmHg 92%
    01:00 +15°C° 0 mm 2 mps 737 mmHg 91%
    02:00 +15°C° 0.1 mm 2 mps 737 mmHg 92%
    03:00 +15°C° 0.1 mm 2 mps 737 mmHg 93%
    04:00 +14°C° 0.1 mm 2 mps 737 mmHg 94%
    05:00 +16°C° 0 mm 2 mps 737 mmHg 91%
    06:00 +17°C° 0 mm 2 mps 737 mmHg 88%
    07:00 +18°C° 0 mm 3 mps 737 mmHg 84%
    08:00 +19°C° 0 mm 3 mps 737 mmHg 77%
    09:00 +21°C° 0 mm 3 mps 737 mmHg 71%
    10:00 +22°C° 0 mm 4 mps 737 mmHg 65%
    11:00 +23°C° 0.1 mm 4 mps 737 mmHg 63%
    12:00 +23°C° 0.1 mm 4 mps 737 mmHg 60%
    13:00 +25°C° 0 mm 4 mps 736 mmHg 56%
    14:00 +25°C° 0.1 mm 3 mps 736 mmHg 56%
    15:00 +25°C° 0.1 mm 3 mps 736 mmHg 56%
    16:00 +25°C° 0.1 mm 3 mps 736 mmHg 55%
    17:00 +24°C° 0 mm 3 mps 736 mmHg 61%
    18:00 +23°C° 0 mm 2 mps 736 mmHg 66%
    19:00 +22°C° 0 mm 1 mps 735 mmHg 71%
    20:00 +21°C° 0 mm 1 mps 736 mmHg 73%
    21:00 +19°C° 0 mm 1 mps 736 mmHg 76%
    22:00 +18°C° 0 mm 1 mps 736 mmHg 79%
    23:00 +16°C° 0 mm 1 mps 736 mmHg 79%

    Tomorrow, 16 July, Monday

    Time Temperature Precipitation Wind Pressure Humidity
    00:00 +16°C° 0 mm 1 mps 736 mmHg 80%
    01:00 +15°C° 0 mm 2 mps 736 mmHg 80%
    02:00 +15°C° 0 mm 2 mps 736 mmHg 80%
    03:00 +15°C° 0 mm 2 mps 736 mmHg 81%
    04:00 +14°C° 0 mm 2 mps 736 mmHg 82%
    05:00 +16°C° 0 mm 2 mps 735 mmHg 79%
    06:00 +18°C° 0 mm 2 mps 735 mmHg 75%
    07:00 +19°C° 0 mm 2 mps 735 mmHg 72%
    08:00 +21°C° 0 mm 2 mps 735 mmHg 68%
    09:00 +22°C° 0 mm 3 mps 735 mmHg 64%
    10:00 +24°C° 0 mm 3 mps 735 mmHg 60%
    11:00 +25°C° 0 mm 3 mps 735 mmHg 57%
    12:00 +26°C° 0 mm 3 mps 734 mmHg 54%
    13:00 +26°C° 0 mm 3 mps 734 mmHg 52%
    14:00 +26°C° 0 mm 3 mps 734 mmHg 52%
    15:00 +26°C° 0 mm 3 mps 734 mmHg 52%
    16:00 +26°C° 0 mm 3 mps 733 mmHg 53%
    17:00 +25°C° 0.2 mm 3 mps 733 mmHg 60%
    18:00 +24°C° 0.2 mm 2 mps 733 mmHg 67%
    19:00 +21°C° 0.2 mm 2 mps 733 mmHg 74%
    20:00 +21°C° 0 mm 1 mps 733 mmHg 78%
    21:00 +20°C° 0 mm 1 mps 732 mmHg 82%
    22:00 +18°C° 0 mm 1 mps 732 mmHg 85%
    23:00 +18°C° 0 mm 1 mps 732 mmHg 86%

    Day after tomorrow, 17 July, Tuesday

    Time Temperature Precipitation Wind Pressure Humidity
    00:00 +17°C° 0 mm 2 mps 732 mmHg 88%
    01:00 +16°C° 0 mm 2 mps 732 mmHg 89%
    02:00 +16°C° 0.1 mm 2 mps 732 mmHg 89%
    03:00 +16°C° 0.1 mm 3 mps 731 mmHg 89%
    04:00 +16°C° 0.1 mm 3 mps 731 mmHg 89%
    05:00 +17°C° 0.5 mm 3 mps 731 mmHg 88%
    06:00 +18°C° 0.5 mm 4 mps 731 mmHg 86%
    07:00 +17°C° 0.5 mm 5 mps 731 mmHg 85%
    08:00 +19°C° 0.7 mm 5 mps 731 mmHg 85%
    09:00 +19°C° 0.7 mm 6 mps 731 mmHg 84%
    10:00 +19°C° 0.7 mm 6 mps 731 mmHg 84%
    11:00 +19°C° 0.6 mm 6 mps 731 mmHg 84%
    12:00 +19°C° 0.6 mm 6 mps 731 mmHg 84%
    13:00 +18°C° 0.6 mm 7 mps 731 mmHg 84%
    14:00 +18°C° 0.2 mm 7 mps 731 mmHg 84%
    15:00 +17°C° 0.2 mm 6 mps 731 mmHg 84%
    16:00 +17°C° 0.2 mm 6 mps 731 mmHg 83%
    17:00 +17°C° 0 mm 6 mps 731 mmHg 84%
    18:00 +17°C° 0 mm 6 mps 731 mmHg 85%
    19:00 +17°C° 0 mm 5 mps 731 mmHg 85%
    20:00 +17°C° 0.1 mm 5 mps 731 mmHg 87%
    21:00 +16°C° 0.1 mm 5 mps 731 mmHg 89%
    22:00 +16°C° 0.1 mm 5 mps 731 mmHg 90%
    23:00 +16°C° 0.2 mm 5 mps 731 mmHg 91%

    18 July, Wednesday

    Time Temperature Precipitation Wind Pressure Humidity
    00:00 +16°C° 0.2 mm 5 mps 731 mmHg 91%
    01:00 +16°C° 0.2 mm 5 mps 731 mmHg 92%
    02:00 +16°C° 0.7 mm 5 mps 731 mmHg 92%
    03:00 +16°C° 0.7 mm 5 mps 731 mmHg 93%
    04:00 +16°C° 0.7 mm 5 mps 731 mmHg 94%
    05:00 +16°C° 1.6 mm 5 mps 731 mmHg 94%
    06:00 +16°C° 1.6 mm 5 mps 731 mmHg 94%
    07:00 +16°C° 1.6 mm 6 mps 731 mmHg 94%
    08:00 +16°C° 1.3 mm 6 mps 731 mmHg 94%
    09:00 +17°C° 1.3 mm 6 mps 732 mmHg 93%
    10:00 +17°C° 1.3 mm 6 mps 732 mmHg 93%
    11:00 +17°C° 0.6 mm 6 mps 732 mmHg 92%
    12:00 +18°C° 0.6 mm 7 mps 732 mmHg 91%
    13:00 +18°C° 0.6 mm 7 mps 732 mmHg 90%
    14:00 +18°C° 0.2 mm 7 mps 733 mmHg 89%
    15:00 +19°C° 0.2 mm 6 mps 733 mmHg 89%
    16:00 +20°C° 0.2 mm 6 mps 733 mmHg 88%
    17:00 +19°C° 0.1 mm 6 mps 733 mmHg 89%
    18:00 +19°C° 0.1 mm 5 mps 733 mmHg 90%
    19:00 +19°C° 0.1 mm 5 mps 734 mmHg 91%
    20:00 +18°C° 0.1 mm 4 mps 734 mmHg 92%
    21:00 +18°C° 0.1 mm 4 mps 734 mmHg 93%
    22:00 +18°C° 0.1 mm 4 mps 735 mmHg 94%
    23:00 +17°C° 0 mm 4 mps 735 mmHg 94%

    19 July, Thursday

    Time Temperature Precipitation Wind Pressure Humidity
    00:00 +17°C° 0 mm 4 mps 735 mmHg 94%
    01:00 +17°C° 0 mm 4 mps 735 mmHg 94%
    02:00 +17°C° 0 mm 4 mps 735 mmHg 94%
    03:00 +15°C° 0 mm 4 mps 735 mmHg 95%
    04:00 +15°C° 0 mm 4 mps 735 mmHg 95%
    05:00 +17°C° 0 mm 4 mps 735 mmHg 94%
    06:00 +17°C° 0 mm 4 mps 735 mmHg 92%
    07:00 +17°C° 0 mm 5 mps 736 mmHg 91%
    08:00 +19°C° 0 mm 5 mps 736 mmHg 87%
    09:00 +19°C° 0 mm 5 mps 736 mmHg 83%
    10:00 +20°C° 0 mm 5 mps 736 mmHg 80%
    11:00 +21°C° 0 mm 5 mps 736 mmHg 75%
    12:00 +22°C° 0 mm 5 mps 736 mmHg 71%
    13:00 +23°C° 0 mm 4 mps 736 mmHg 67%
    14:00 +25°C° 0 mm 4 mps 736 mmHg 65%
    15:00 +25°C° 0 mm 4 mps 736 mmHg 63%
    16:00 +25°C° 0 mm 4 mps 736 mmHg 62%
    17:00 +23°C° 0 mm 4 mps 736 mmHg 67%
    18:00 +22°C° 0 mm 3 mps 736 mmHg 72%
    19:00 +21°C° 0 mm 2 mps 735 mmHg 78%
    20:00 +20°C° 0 mm 2 mps 736 mmHg 81%
    21:00 +19°C° 0 mm 2 mps 736 mmHg 84%
    22:00 +18°C° 0 mm 2 mps 736 mmHg 88%
    23:00 +17°C° 0 mm 2 mps 736 mmHg 89%

    20 July, Friday

    Time Temperature Precipitation Wind Pressure Humidity
    00:00 +17°C° 0 mm 2 mps 736 mmHg 91%
    01:00 +16°C° 0 mm 2 mps 736 mmHg 93%
    02:00 +16°C° 0 mm 2 mps 736 mmHg 93%
    03:00 +16°C° 0 mm 2 mps 736 mmHg 94%
    04:00 +16°C° 0 mm 2 mps 735 mmHg 95%
    05:00 +17°C° 0 mm 2 mps 736 mmHg 91%
    06:00 +18°C° 0 mm 2 mps 736 mmHg 87%
    07:00 +19°C° 0 mm 2 mps 736 mmHg 83%
    08:00 +21°C° 0 mm 3 mps 736 mmHg 77%
    09:00 +22°C° 0 mm 3 mps 736 mmHg 72%
    10:00 +24°C° 0 mm 3 mps 736 mmHg 66%
    11:00 +25°C° 0 mm 2 mps 736 mmHg 63%
    12:00 +26°C° 0 mm 2 mps 735 mmHg 60%
    13:00 +26°C° 0 mm 2 mps 735 mmHg 57%
    14:00 +27°C° 0 mm 2 mps 735 mmHg 57%
    15:00 +27°C° 0 mm 2 mps 735 mmHg 56%
    16:00 +27°C° 0 mm 2 mps 735 mmHg 55%
    17:00 +26°C° 0 mm 1 mps 734 mmHg 60%
    18:00 +25°C° 0 mm 1 mps 734 mmHg 65%
    19:00 +24°C° 0 mm 1 mps 734 mmHg 70%
    20:00 +22°C° 0 mm 1 mps 734 mmHg 74%
    21:00 +21°C° 0 mm 1 mps 734 mmHg 78%
    22:00 +20°C° 0 mm 1 mps 735 mmHg 82%
    23:00 +19°C° 0 mm 1 mps 735 mmHg 83%
    Show more